• In Latvia
  • List of Countries
  • For 7 days
  • Water Temperature
  • Satellite Maps
  • Weather Map
  • Weather Widgets
  • user-avatar
    Login

    Hourly Weather Shkoder

    Today, 1 May, Monday

    Time Temperature Precipitation Wind Pressure Humidity
    00:00 +13°C° 0.1 mm 2 mps 737 mmHg 84%
    01:00 +13°C° 0.1 mm 2 mps 737 mmHg 84%
    02:00 +13°C° 0.1 mm 1 mps 737 mmHg 85%
    03:00 +13°C° 0.1 mm 1 mps 737 mmHg 86%
    04:00 +13°C° 0.1 mm 1 mps 737 mmHg 87%
    05:00 +14°C° 0.1 mm 1 mps 737 mmHg 82%
    06:00 +16°C° 0.1 mm 1 mps 737 mmHg 77%
    07:00 +18°C° 0.1 mm 1 mps 737 mmHg 73%
    08:00 +20°C° 0 mm 1 mps 737 mmHg 67%
    09:00 +22°C° 0 mm 1 mps 737 mmHg 61%
    10:00 +24°C° 0 mm 1 mps 738 mmHg 55%
    11:00 +24°C° 0.3 mm 2 mps 737 mmHg 57%
    12:00 +24°C° 0.3 mm 2 mps 737 mmHg 58%
    13:00 +24°C° 0.3 mm 3 mps 737 mmHg 59%
    14:00 +24°C° 0.3 mm 3 mps 737 mmHg 61%
    15:00 +23°C° 0.3 mm 2 mps 737 mmHg 63%
    16:00 +23°C° 0.3 mm 2 mps 737 mmHg 65%
    17:00 +20°C° 0.1 mm 2 mps 737 mmHg 74%
    18:00 +18°C° 0.1 mm 1 mps 737 mmHg 83%
    19:00 +15°C° 0.1 mm 1 mps 737 mmHg 91%
    20:00 +14°C° 0 mm 1 mps 738 mmHg 92%
    21:00 +14°C° 0 mm 1 mps 738 mmHg 93%
    22:00 +13°C° 0 mm 1 mps 738 mmHg 94%
    23:00 +12°C° 0 mm 0 mps 739 mmHg 94%

    Tomorrow, 2 May, Tuesday

    Time Temperature Precipitation Wind Pressure Humidity
    00:00 +11°C° 0 mm 0 mps 739 mmHg 95%
    01:00 +11°C° 0 mm 0 mps 739 mmHg 95%
    02:00 +11°C° 0 mm 0 mps 739 mmHg 95%
    03:00 +10°C° 0 mm 0 mps 739 mmHg 94%
    04:00 +10°C° 0 mm 0 mps 739 mmHg 94%
    05:00 +12°C° 0 mm 0 mps 739 mmHg 86%
    06:00 +15°C° 0 mm 0 mps 739 mmHg 78%
    07:00 +17°C° 0 mm 0 mps 740 mmHg 70%
    08:00 +21°C° 0 mm 1 mps 740 mmHg 61%
    09:00 +23°C° 0 mm 1 mps 740 mmHg 51%
    10:00 +25°C° 0 mm 1 mps 740 mmHg 42%
    11:00 +25°C° 0 mm 2 mps 740 mmHg 41%
    12:00 +25°C° 0 mm 2 mps 740 mmHg 39%
    13:00 +26°C° 0 mm 3 mps 740 mmHg 38%
    14:00 +25°C° 0 mm 3 mps 739 mmHg 41%
    15:00 +25°C° 0 mm 3 mps 739 mmHg 44%
    16:00 +24°C° 0 mm 2 mps 739 mmHg 47%
    17:00 +20°C° 0 mm 2 mps 739 mmHg 59%
    18:00 +17°C° 0 mm 2 mps 739 mmHg 72%
    19:00 +14°C° 0 mm 1 mps 739 mmHg 84%
    20:00 +13°C° 0 mm 1 mps 740 mmHg 84%
    21:00 +13°C° 0 mm 1 mps 740 mmHg 85%
    22:00 +12°C° 0 mm 1 mps 740 mmHg 86%
    23:00 +11°C° 0 mm 0 mps 740 mmHg 86%

    Day after tomorrow, 3 May, Wednesday

    Time Temperature Precipitation Wind Pressure Humidity
    00:00 +11°C° 0 mm 0 mps 740 mmHg 85%
    01:00 +11°C° 0 mm 0 mps 740 mmHg 85%
    02:00 +10°C° 0 mm 0 mps 740 mmHg 85%
    03:00 +10°C° 0 mm 0 mps 740 mmHg 84%
    04:00 +10°C° 0 mm 0 mps 739 mmHg 84%
    05:00 +13°C° 0 mm 0 mps 740 mmHg 73%
    06:00 +16°C° 0 mm 0 mps 740 mmHg 63%
    07:00 +18°C° 0 mm 0 mps 740 mmHg 53%
    08:00 +22°C° 0 mm 1 mps 740 mmHg 51%
    09:00 +23°C° 0 mm 1 mps 740 mmHg 48%
    10:00 +25°C° 0 mm 2 mps 740 mmHg 46%
    11:00 +25°C° 0.1 mm 2 mps 740 mmHg 45%
    12:00 +25°C° 0.1 mm 2 mps 739 mmHg 44%
    13:00 +26°C° 0.1 mm 3 mps 739 mmHg 43%
    14:00 +25°C° 0.1 mm 3 mps 739 mmHg 45%
    15:00 +25°C° 0.1 mm 3 mps 739 mmHg 47%
    16:00 +24°C° 0.1 mm 2 mps 739 mmHg 48%
    17:00 +20°C° 0 mm 2 mps 739 mmHg 60%
    18:00 +18°C° 0 mm 1 mps 739 mmHg 72%
    19:00 +14°C° 0 mm 1 mps 738 mmHg 84%
    20:00 +14°C° 0 mm 1 mps 739 mmHg 85%
    21:00 +13°C° 0 mm 1 mps 739 mmHg 85%
    22:00 +12°C° 0 mm 1 mps 739 mmHg 86%
    23:00 +12°C° 0 mm 1 mps 739 mmHg 85%

    4 May, Thursday

    Time Temperature Precipitation Wind Pressure Humidity
    00:00 +11°C° 0 mm 0 mps 739 mmHg 85%
    01:00 +10°C° 0 mm 0 mps 739 mmHg 85%
    02:00 +10°C° 0 mm 0 mps 738 mmHg 84%
    03:00 +10°C° 0 mm 0 mps 738 mmHg 84%
    04:00 +9°C° 0 mm 0 mps 738 mmHg 84%
    05:00 +12°C° 0 mm 0 mps 738 mmHg 75%
    06:00 +15°C° 0 mm 0 mps 738 mmHg 65%
    07:00 +18°C° 0 mm 0 mps 738 mmHg 56%
    08:00 +21°C° 0 mm 1 mps 738 mmHg 51%
    09:00 +22°C° 0 mm 1 mps 738 mmHg 46%
    10:00 +24°C° 0 mm 2 mps 738 mmHg 41%
    11:00 +24°C° 0 mm 2 mps 738 mmHg 41%
    12:00 +25°C° 0 mm 2 mps 738 mmHg 41%
    13:00 +25°C° 0 mm 3 mps 738 mmHg 41%
    14:00 +24°C° 0 mm 3 mps 737 mmHg 44%
    15:00 +24°C° 0 mm 2 mps 737 mmHg 46%
    16:00 +23°C° 0 mm 2 mps 737 mmHg 49%
    17:00 +19°C° 0 mm 2 mps 737 mmHg 60%
    18:00 +18°C° 0 mm 1 mps 737 mmHg 72%
    19:00 +14°C° 0 mm 1 mps 737 mmHg 84%
    20:00 +13°C° 0 mm 1 mps 737 mmHg 84%
    21:00 +13°C° 0 mm 1 mps 738 mmHg 84%
    22:00 +12°C° 0 mm 1 mps 738 mmHg 85%
    23:00 +12°C° 0 mm 1 mps 738 mmHg 85%

    5 May, Friday

    Time Temperature Precipitation Wind Pressure Humidity
    00:00 +12°C° 0 mm 1 mps 738 mmHg 85%
    01:00 +11°C° 0 mm 1 mps 738 mmHg 85%
    02:00 +11°C° 0 mm 1 mps 738 mmHg 86%
    03:00 +11°C° 0 mm 1 mps 737 mmHg 87%
    04:00 +10°C° 0 mm 1 mps 737 mmHg 88%
    05:00 +13°C° 0 mm 1 mps 737 mmHg 79%
    06:00 +15°C° 0 mm 1 mps 738 mmHg 70%
    07:00 +18°C° 0 mm 1 mps 738 mmHg 61%
    08:00 +20°C° 0.1 mm 1 mps 738 mmHg 59%
    09:00 +20°C° 0.1 mm 2 mps 737 mmHg 56%
    10:00 +21°C° 0.1 mm 2 mps 737 mmHg 54%
    11:00 +21°C° 0.5 mm 2 mps 737 mmHg 56%
    12:00 +21°C° 0.5 mm 3 mps 737 mmHg 57%
    13:00 +21°C° 0.5 mm 3 mps 737 mmHg 59%
    14:00 +20°C° 0.5 mm 3 mps 737 mmHg 61%
    15:00 +20°C° 0.5 mm 2 mps 737 mmHg 63%
    16:00 +19°C° 0.5 mm 2 mps 737 mmHg 65%
    17:00 +17°C° 0.1 mm 2 mps 737 mmHg 74%
    18:00 +15°C° 0.1 mm 2 mps 737 mmHg 83%
    19:00 +13°C° 0.1 mm 1 mps 737 mmHg 91%
    20:00 +12°C° 0 mm 1 mps 738 mmHg 93%
    21:00 +12°C° 0 mm 1 mps 738 mmHg 94%
    22:00 +11°C° 0 mm 1 mps 738 mmHg 95%
    23:00 +11°C° 0 mm 1 mps 738 mmHg 94%

    6 May, Saturday

    Time Temperature Precipitation Wind Pressure Humidity
    00:00 +11°C° 0 mm 1 mps 738 mmHg 94%
    01:00 +10°C° 0 mm 1 mps 738 mmHg 94%
    02:00 +10°C° 0 mm 1 mps 738 mmHg 94%
    03:00 +10°C° 0 mm 1 mps 738 mmHg 93%
    04:00 +10°C° 0 mm 1 mps 738 mmHg 93%
    05:00 +12°C° 0 mm 1 mps 739 mmHg 87%
    06:00 +14°C° 0 mm 1 mps 739 mmHg 80%
    07:00 +16°C° 0 mm 0 mps 739 mmHg 74%
    08:00 +19°C° 0 mm 1 mps 739 mmHg 67%
    09:00 +21°C° 0 mm 1 mps 739 mmHg 60%
    10:00 +23°C° 0 mm 1 mps 739 mmHg 53%
    11:00 +23°C° 0 mm 2 mps 739 mmHg 53%
    12:00 +23°C° 0 mm 2 mps 739 mmHg 53%
    13:00 +24°C° 0 mm 2 mps 738 mmHg 53%
    14:00 +23°C° 0.1 mm 2 mps 738 mmHg 56%
    15:00 +23°C° 0.1 mm 2 mps 738 mmHg 59%
    16:00 +21°C° 0.1 mm 2 mps 738 mmHg 62%
    17:00 +19°C° 0 mm 2 mps 738 mmHg 73%
    18:00 +16°C° 0 mm 1 mps 738 mmHg 83%
    19:00 +14°C° 0 mm 1 mps 738 mmHg 94%
    20:00 +13°C° 0 mm 1 mps 738 mmHg 94%
    21:00 +11°C° 0 mm 0 mps 739 mmHg 95%
    22:00 +11°C° 0 mm 0 mps 739 mmHg 95%
    23:00 +12°C° 0 mm 1 mps 739 mmHg 95%
    Show more